Location: Unspecified
(52.4292°N, 19.3359°E)
Time: 15:36:08
(UTC+02:00)

Transit 2A Rocket - Pass Details

Date: 21 May 2024
Orbit: 583 x 910 km, 66.7° (Epoch: 14 June)

Event Time Altitude Azimuth Distance (km) Brightness Sun altitude
Rises 13:09:15 0° 319° (NW) 3,380 8.1 57.4°
Reaches altitude 10° 13:11:39 10° 318° (NW) 2,484 7.6 57.3°
Maximum altitude 13:17:26 74° 235° (SW) 925 7.0 57.1°
Drops below altitude 10° 13:23:29 10° 151° (SSE) 2,587 8.2 56.8°
Sets 13:26:01 0° 150° (SSE) 3,529 8.7 56.7°
